Cedar Rapids, IA

10:20 PM CST on December 16, 2017 (GMT -0600)
The Eastern Iowa Airport

Weather History for KCID - August, 2014

Change the Weather History Date:

Monday, August 25, 2014

  Actual Average Record
Temperature  
Mean Temperature 82 °F 70 °F  
Max Temperature 89 °F 81 °F 97 °F (1925)
Min Temperature 74 °F 59 °F 40 °F (1934)
Degree Days  
Heating Degree Days 0 1  
Month to date heating degree days 0 6  
Since 1 June heating degree days 24 39  
Since 1 July heating degree days 19 10  
Cooling Degree Days 17 6  
Month to date cooling degree days 175 169  
Year to date cooling degree days 572 636  
Since 1 June cooling degree days 492 587  
Growing Degree Days 31 (Base 50)    
Moisture  
Dew Point 75 °F    
Average Humidity 82    
Maximum Humidity 100    
Minimum Humidity 64    
Precipitation  
Precipitation 0.10 in 0.14 in 2.61 in (1987)
Month to date precipitation 1.13 3.65  
Year to date precipitation 29.23 24.47  
Sea Level Pressure  
Sea Level Pressure 29.94 in    
Wind  
Wind Speed 5 mph (South)    
Max Wind Speed 20 mph    
Max Gust Speed 23 mph    
Visibility 9 miles    
Events Rain , Thunderstorm    
T = Trace of Precipitation, MM = Missing Value Source: NWS Daily Summary

Daily Weather History Graph

Daily Weather History Graph

Search for Another Location

Airport or City:

Trip Planner

Search our weather history database for the weather conditions in past years. The results will help you decide how hot, cold, wet, or windy it might be!

Date:

Astronomy

Aug. 25, 2014 Rise Set
Actual Time 6:25 AM CDT 7:51 PM CDT
Civil Twilight 5:56 AM CDT 8:20 PM CDT
Nautical Twilight 5:21 AM CDT 8:55 PM CDT
Astronomical Twilight 4:43 AM CDT 9:32 PM CDT
Moon 6:31 AM CDT (8/25) 7:40 PM CDT (8/25)
Length of Visible Light 14h 24m
Length of Day
13h 26m
New Moon, 0% of the Moon is Illuminated
Aug 25
New Moon
Sep 2
First Quarter
Sep 8
Full
Sep 15
Last Quarter
Sep 24
New

Hourly Weather History & Observations

Time (CDT) Temp. Heat Index Dew Point Humidity Pressure Visibility Wind Dir Wind Speed Gust Speed Precip Events Conditions
12:52 AM 75.0 °F - 73.0 °F 94% 29.90 in 10.0 mi SSE 5.8 mph - N/A   Clear
1:52 AM 75.0 °F - 73.0 °F 94% 29.90 in 10.0 mi SE 6.9 mph - N/A   Clear
2:52 AM 75.0 °F - 73.0 °F 94% 29.89 in 9.0 mi SSE 6.9 mph - N/A   Clear
3:52 AM 75.9 °F - 73.9 °F 94% 29.88 in 9.0 mi South 6.9 mph - N/A   Clear
4:52 AM 75.9 °F - 73.9 °F 94% 29.90 in 9.0 mi NNW 6.9 mph - N/A   Mostly Cloudy
5:52 AM 75.0 °F - 73.0 °F 94% 29.91 in 9.0 mi ENE 4.6 mph - N/A   Clear
6:52 AM 73.4 °F - 73.4 °F 100% 29.93 in 7.0 mi SSW 3.5 mph - N/A Thunderstorm Thunderstorm
7:52 AM 75.9 °F - 73.9 °F 94% 29.94 in 7.0 mi SE 3.5 mph - N/A   Mostly Cloudy
7:59 AM 75.9 °F - 75.0 °F 97% 29.96 in 7.0 mi South 4.6 mph - 0.00 in Rain , Thunderstorm Light Rain
8:52 AM 75.2 °F - 75.2 °F 100% 29.96 in 7.0 mi ESE 5.8 mph - N/A   Overcast
9:52 AM 78.1 °F - 75.9 °F 93% 29.94 in 8.0 mi SE 4.6 mph - N/A   Clear
10:52 AM 82.9 °F 90.8 °F 75.9 °F 79% 29.95 in 10.0 mi South 8.1 mph - N/A   Clear
11:14 AM 81.0 °F 86.7 °F 75.0 °F 82% 29.97 in 10.0 mi South 6.9 mph - 0.00 in Thunderstorm Thunderstorm
11:52 AM 80.1 °F 85.4 °F 75.9 °F 87% 29.96 in 5.0 mi SSE 5.8 mph - 0.03 in Rain , Thunderstorm Light Thunderstorms and Rain
12:52 PM 75.0 °F - 70.0 °F 84% 29.96 in 10.0 mi Variable 3.5 mph - N/A Rain , Thunderstorm Light Thunderstorms and Rain
1:29 PM 80.1 °F 84.2 °F 73.0 °F 79% 29.98 in 10.0 mi SW 3.5 mph - 0.00 in   Scattered Clouds
1:52 PM 86.0 °F 96.0 °F 75.9 °F 72% 29.95 in 10.0 mi WSW 5.8 mph - 0.00 in   Scattered Clouds
2:52 PM 87.1 °F 97.3 °F 75.9 °F 69% 29.94 in 10.0 mi West 9.2 mph - N/A   Partly Cloudy
3:52 PM 89.1 °F 99.1 °F 75.0 °F 63% 29.92 in 10.0 mi Calm Calm - N/A   Partly Cloudy
4:52 PM 88.0 °F 100.2 °F 77.0 °F 70% 29.93 in 10.0 mi SSW 8.1 mph - N/A   Partly Cloudy
5:52 PM 87.1 °F 98.8 °F 77.0 °F 72% 29.94 in 10.0 mi South 6.9 mph - N/A   Partly Cloudy
6:52 PM 84.9 °F 97.5 °F 79.0 °F 82% 29.94 in 10.0 mi South 4.6 mph - N/A   Partly Cloudy
7:52 PM 80.1 °F 86.4 °F 78.1 °F 94% 29.95 in 10.0 mi Calm Calm - N/A   Partly Cloudy
8:52 PM 78.8 °F - 77.0 °F 94% 29.97 in 10.0 mi Calm Calm - N/A   Clear
9:52 PM 75.2 °F - 75.2 °F 100% 29.97 in 8.0 mi Calm Calm - N/A   Clear
10:52 PM 77.0 °F - 75.0 °F 94% 29.98 in 9.0 mi NNW 3.5 mph - N/A   Clear
11:52 PM 75.9 °F - 75.0 °F 97% 30.00 in 8.0 mi NW 5.8 mph - N/A   Clear